Retour au catalogue

STARLINK-37981

ActifCommunicationsVLEO
NORAD 100282·PAYLOAD·🇺🇸 United States

Lancé Aug 11, 2026 depuis Cape Canaveral Space Force Station

Loading…

Prochains Passages (prochaines 24 heures)

TLE

VieillissantSource: Space-Track

Époque: Sep 12, 2026, 15:52 UTC

1 A0282U 26183L   26255.66125648 -.00359017  00000-0 -25590-2 0  9990
2 A0282  53.1576 295.9417 0001406  34.4553 325.6558 15.74131470  5072

Suivez STARLINK-37981 en temps réel avec AllMySat

Download on the App Store